Terug naar catalogus

STARLINK-31705

ActiefCommunicatieVLEO
NORAD 59382·PAYLOAD·🇺🇸 United States

Gelanceerd Apr 2, 2024 vanaf Vandenberg Space Force Base

Loading…

Volgende Passages (komende 24 uur)

TLE

VersSource: CelesTrak SupGP

Epoch: Sep 15, 2026, 03:22 UTC

1 59382C 24062J   26258.14076389 -.00020192  00000+0 -59662-3 0  2586
2 59382  53.1572  92.5960 0000978  83.3648 172.0966 15.34399568    14

Volg STARLINK-31705 in realtime met AllMySat

Download on the App Store